Weather History for West Palm Beach, FL

Change the Weather History Date:

Wednesday, May 22, 2013

  Actual Average Record
Temperature  
Mean Temperature 78 °F 79 °F  
Max Temperature 82 °F 87 °F 95 °F (1961)
Min Temperature 73 °F 72 °F 56 °F (1919)
Degree Days  
Heating Degree Days 0 0  
Month to date heating degree days 0 0  
Since 1 July heating degree days 164 233  
Cooling Degree Days 13 14  
Month to date cooling degree days 232 278  
Year to date cooling degree days 1059 973  
Growing Degree Days 28 (Base 50)    
Moisture  
Dew Point 70 °F    
Average Humidity 84    
Maximum Humidity 94    
Minimum Humidity 74    
Precipitation  
Precipitation 0.16 in 0.18 in 5.49 in (2003)
Month to date precipitation 13.20 2.62  
Year to date precipitation 22.48 16.82  
Snow  
Snow 0.00 in - - ()
Month to date snowfall 0.0  
Since 1 July snowfall 0.0  
Snow Depth 0.00 in    
Sea Level Pressure  
Sea Level Pressure 29.93 in    
Wind  
Wind Speed 7 mph (SSE)    
Max Wind Speed 20 mph    
Max Gust Speed 23 mph    
Visibility 9 miles    
Events Rain    
T = Trace of Precipitation, MM = Missing Value Source: NWS Daily Summary

Daily Weather History Graph

Daily Weather History Graph

Search for Another Location

Airport:

Trip Planner

Search our weather history database for the weather conditions in past years. The results will help you decide how hot, cold, wet, or windy it might be!

Date:

Astronomy

May. 22, 2013 Rise Set
Actual Time 6:29 AM EDT 8:04 PM EDT
Civil Twilight 6:04 AM EDT 8:30 PM EDT
Nautical Twilight 5:33 AM EDT 9:00 PM EDT
Astronomical Twilight 5:01 AM EDT 9:32 PM EDT
Moon 5:36 PM EDT (5/22) 4:17 AM EDT (5/22)
Length of Visible Light 14h 25m
Length of Day
13h 34m
Waxing Gibbous, 91% of the Moon is Illuminated
May 22
Waxing Gibbous
May 25
Full
May 31
Last Quarter
Jun 8
New
Jun 16
First Quarter

Hourly Weather History & Observations

Time (EDT) Temp. Heat Index Dew Point Humidity Pressure Visibility Wind Dir Wind Speed Gust Speed Precip Events Conditions
12:53 AM 75.0 °F - 70.0 °F 84% 29.95 in 10.0 mi SE 9.2 mph - N/A   Mostly Cloudy
1:53 AM 75.0 °F - 70.0 °F 84% 29.93 in 10.0 mi SE 6.9 mph - N/A   Mostly Cloudy
2:53 AM 75.0 °F - 71.1 °F 87% 29.92 in 10.0 mi SE 3.5 mph - N/A   Scattered Clouds
3:37 AM 73.4 °F - 69.8 °F 88% 29.91 in 10.0 mi South 6.9 mph 18.4 mph 0.00 in Rain Light Rain
3:53 AM 73.9 °F - 71.1 °F 91% 29.92 in 10.0 mi South 4.6 mph - 0.00 in   Mostly Cloudy
4:12 AM 73.4 °F - 71.6 °F 94% 29.92 in 10.0 mi South 4.6 mph - N/A   Mostly Cloudy
4:53 AM 75.0 °F - 71.1 °F 87% 29.92 in 10.0 mi SE 6.9 mph - N/A   Scattered Clouds
5:53 AM 73.9 °F - 72.0 °F 93% 29.91 in 10.0 mi SSW 3.5 mph - 0.00 in Rain Light Rain
6:53 AM 73.9 °F - 70.0 °F 87% 29.94 in 10.0 mi South 9.2 mph - 0.00 in   Mostly Cloudy
7:53 AM 75.0 °F - 68.0 °F 79% 29.94 in 10.0 mi South 6.9 mph - N/A   Scattered Clouds
8:43 AM 77.0 °F - 71.6 °F 83% 29.95 in 10.0 mi SSE 6.9 mph - N/A   Mostly Cloudy
8:53 AM 77.0 °F - 72.0 °F 84% 29.95 in 10.0 mi SSE 8.1 mph - N/A   Mostly Cloudy
9:46 AM 75.2 °F - 69.8 °F 83% 29.97 in 10.0 mi SE 10.4 mph - N/A   Mostly Cloudy
9:53 AM 75.0 °F - 68.0 °F 79% 29.96 in 10.0 mi SE 9.2 mph - N/A   Mostly Cloudy
10:53 AM 78.1 °F - 70.0 °F 76% 29.96 in 10.0 mi SSE 9.2 mph - N/A   Scattered Clouds
11:53 AM 79.0 °F - 69.1 °F 72% 29.96 in 10.0 mi South 6.9 mph - N/A   Mostly Cloudy
12:53 PM 79.0 °F - 69.1 °F 72% 29.94 in 10.0 mi ESE 15.0 mph - N/A   Mostly Cloudy
1:53 PM 81.0 °F 84.9 °F 71.1 °F 72% 29.94 in 10.0 mi ESE 6.9 mph - N/A   Mostly Cloudy
2:53 PM 79.0 °F - 70.0 °F 74% 29.92 in 10.0 mi ESE 12.7 mph - 0.00 in Rain Light Rain
3:53 PM 80.1 °F 83.6 °F 71.1 °F 74% 29.94 in 10.0 mi SE 15.0 mph - 0.00 in   Mostly Cloudy
4:06 PM 78.8 °F - 71.6 °F 78% 29.93 in 10.0 mi South 15.0 mph - 0.00 in Rain Light Rain
4:17 PM 75.2 °F - 69.8 °F 83% 29.92 in 2.0 mi South 12.7 mph - 0.00 in Rain Heavy Rain
4:19 PM 73.4 °F - 69.8 °F 88% 29.92 in 0.5 mi South 10.4 mph - 0.01 in Rain Heavy Rain
4:23 PM 73.4 °F - 69.8 °F 88% 29.92 in 1.2 mi South 12.7 mph - 0.14 in Rain Heavy Rain
4:26 PM 73.4 °F - 69.8 °F 88% 29.91 in 5.0 mi SSE 10.4 mph - 0.15 in Rain Rain
4:33 PM 73.4 °F - 69.8 °F 88% 29.92 in 10.0 mi ESE 8.1 mph - 0.16 in Rain Light Rain
4:53 PM 73.9 °F - 70.0 °F 87% 29.91 in 10.0 mi ESE 6.9 mph - 0.16 in   Mostly Cloudy
5:53 PM 75.0 °F - 69.1 °F 82% 29.93 in 10.0 mi Calm Calm - 0.00 in   Mostly Cloudy
6:53 PM 75.0 °F - 69.1 °F 82% 29.92 in 10.0 mi SE 5.8 mph - 0.00 in Rain Light Rain
7:53 PM 75.9 °F - 72.0 °F 87% 29.91 in 10.0 mi ESE 6.9 mph - 0.00 in   Mostly Cloudy
8:53 PM 75.9 °F - 72.0 °F 87% 29.92 in 10.0 mi SE 8.1 mph - N/A   Mostly Cloudy
9:53 PM 75.9 °F - 73.0 °F 91% 29.94 in 10.0 mi SE 4.6 mph - N/A   Scattered Clouds
10:53 PM 75.0 °F - 72.0 °F 90% 29.96 in 10.0 mi SSE 4.6 mph - N/A   Scattered Clouds
11:53 PM 75.0 °F - 72.0 °F 90% 29.95 in 10.0 mi SSE 4.6 mph - N/A   Scattered Clouds